Location: Buisson
(44.2787°N, 4.9969°E)
Time: 07:48:33
(UTC+00:00)

Cosmos 1943 Rocket - Pass Details

Date: 18 April 2021
Orbit: 812 x 843 km, 71.0° (Epoch: 06 May)

Event Time Altitude Azimuth Distance (km) Brightness Sun altitude
Exits shadow 02:24:39 15° 154° (SSE) 2,130 4.1 -23.4°
Maximum altitude 02:28:21 29° 103° (ESE) 1,504 3.8 -22.9°
Drops below altitude 10° 02:33:07 10° 46° (NE) 2,465 5.8 -22.3°
Sets 02:35:51 0° 35° (NE) 3,401 6.8 -21.9°
